Temp
69 73 75 77 77 77 76 76 76 76 76 76 76 76 76 76 76 76 77 78 77 77 77 77 76 76 76 75 75 75 75 75 75 75 75 75 75 75 75 74 73 71 75
72 74 74 76 76 76 76 75 75 75 76 77 76 76 76 76 76 76 77 76 77 77 77 76 76 75 74 74 74 74 74 74 73 73 73 74 74 74 74 74 74 74 75
73 74 75 75 76 75 75 75 75 76 76 76 77 76 76 76 76 76 76 76 76 77 76 76 75 75 74 74 74 74 74 74 73 73 71 67 68 74 74 74 74 75 74
75 75 74 73 75 75 75 75 75 75 76 76 76 76 76 76 76 76 76 76 76 76 76 76 75 74 74 73 73 73 73 73 72 72 69 69 71 74 74 74 74 74 74
75 75 73 72 74 75 74 74 75 75 75 76 76 76 76 76 76 76 76 75 76 76 76 76 75 74 73 73 73 73 73 72 71 71 66 65 65 72 73 73 72 73 72
77 76 71 73 74 74 74 74 75 75 75 75 75 76 76 75 75 75 74 75 74 75 76 74 73 73 72 73 73 72 72 72 70 71 69 68 66 73 72 72 72 72 72
74 74 72 72 73 74 74 74 74 74 75 75 75 75 75 75 74 74 74 74 74 75 74 74 73 72 71 71 73 72 71 70 66 70 64 65 66 72 72 72 72 72 72
74 74 72 69 70 72 73 73 73 74 74 74 74 74 74 74 74 74 74 74 73 74 74 74 72 71 71 71 70 70 69 68 67 67 65 64 70 72 72 71 71 72 72
77 74 73 72 70 68 69 70 71 72 72 73 73 73 72 72 72 72 72 73 74 74 73 73 71 70 70 70 69 68 67 66 63 65 69 64 70 72 72 71 71 71 71
73 73 70 71 72 70 68 67 68 69 70 70 70 69 68 68 69 69 68 70 73 73 73 72 70 70 70 69 68 67 65 65 62 63 65 64 71 72 72 71 70 71 71
72 71 71 70 70 72 69 68 65 66 67 67 67 66 65 66 67 67 66 67 71 71 71 71 70 69 68 67 66 66 65 62 62 63 64 67 71 73 72 71 70 70 70
68 70 70 70 70 70 75 72 70 70 66 66 66 66 65 65 66 68 64 65 67 68 69 70 70 68 65 60 60 62 61 61 61 62 63 67 71 73 73 72 71 70 70
69 69 71 71 70 70 70 68 70 70 68 68 68 66 65 66 64 63 63 63 63 62 63 65 64 63 61 60 60 59 60 60 60 62 64 66 70 72 73 73 71 71 70
69 70 71 71 71 69 69 71 73 72 70 69 70 70 68 63 63 62 62 62 61 62 61 61 60 62 61 62 61 61 61 60 60 61 60 62 67 72 73 73 73 72 71
68 68 69 69 69 70 68 68 68 67 70 71 71 71 69 67 63 63 62 62 61 61 61 60 60 62 61 62 62 62 62 62 61 61 60 59 63 69 72 73 73 74 72
69 67 69 69 69 69 67 67 67 67 67 67 70 72 71 69 67 63 62 62 62 61 62 61 62 61 61 61 61 62 62 61 61 61 60 60 61 65 69 72 73 73 74
66 66 69 70 70 68 67 67 66 66 68 66 66 68 70 70 69 68 63 62 62 63 63 62 61 61 60 61 60 61 61 61 61 62 61 60 60 61 64 69 71 72 73
64 65 65 68 66 66 66 65 66 67 67 66 66 66 68 69 70 69 67 66 66 65 62 61 61 60 59 59 59 60 60 61 61 62 62 62 62 63 62 65 67 69 71
61 62 62 63 63 63 64 65 65 66 65 65 65 65 67 67 69 69 67 67 67 66 65 65 64 63 61 61 60 61 61 61 61 64 62 61 63 64 63 63 62 63 67
59 59 60 61 61 61 62 62 62 63 64 64 64 64 66 69 69 68 67 66 66 65 64 64 64 63 64 64 65 65 65 65 66 65 64 65 63 64 64 64 60 60 60
56 57 57 58 58 59 57 58 59 59 62 62 64 65 65 65 65 64 66 65 65 63 63 63 63 62 61 62 59 61 63 65 64 65 66 65 64 64 62 63 62 62 60
53 54 55 56 57 58 57 58 59 59 61 63 64 64 64 64 66 66 65 64 63 62 62 62 62 61 61 61 58 57 54 58 61 64 66 66 65 65 61 63 63 62 61
50 51 54 54 55 56 57 59 59 60 59 58 60 60 61 62 62 63 63 63 63 62 61 61 61 60 60 60 60 58 53 52 56 61 59 63 62 61 62 64 62 63 63
49 51 52 52 52 55 55 55 55 54 53 55 56 57 61 60 59 59 59 58 59 61 61 61 61 61 60 59 59 59 60 59 55 54 59 60 59 60 62 61 63 61 63
49 48 49 50 51 51 51 51 51 51 51 51 52 53 54 55 55 55 55 56 56 57 56 56 58 59 59 59 58 58 57 58 58 55 53 57 59 61 62 63 59 62 63
49 48 48 48 48 49 49 48 48 47 48 47 48 47 48 49 49 50 51 51 51 51 51 51 54 56 56 59 59 58 58 55 54 54 53 56 56 59 59 63 63 62 62
MSLP
1020.28 1019.99 1020.04 1020.12 1020.25 1020.50 1020.67 1020.79 1020.88 1020.99 1021.06 1021.10 1021.25 1021.40 1021.51 1021.67 1021.73 1021.69 1021.56 1021.67 1021.89 1021.96 1022.03 1022.07 1022.01 1021.93 1021.89 1021.91 1021.89 1021.94 1021.84 1021.88 1021.91 1021.96 1021.94 1022.08 1022.15 1022.11 1022.16 1022.22 1022.12 1021.98 1021.82
1019.66 1019.97 1020.11 1020.28 1020.42 1020.51 1020.76 1020.95 1021.02 1021.09 1021.15 1021.22 1021.24 1021.60 1021.72 1021.78 1021.86 1021.95 1021.98 1022.26 1022.28 1022.46 1022.40 1022.43 1022.46 1022.47 1022.50 1022.38 1022.45 1022.39 1022.30 1022.37 1022.42 1022.54 1022.45 1022.45 1022.52 1022.55 1022.53 1022.50 1022.32 1022.18 1022.10
1019.68 1020.01 1020.26 1020.41 1020.65 1020.86 1021.00 1021.13 1021.17 1021.20 1021.32 1021.35 1021.43 1021.48 1021.74 1021.85 1021.99 1022.10 1022.23 1022.38 1022.54 1022.59 1022.67 1022.67 1022.69 1022.76 1022.80 1022.78 1022.80 1022.74 1022.63 1022.67 1022.73 1022.79 1022.94 1022.88 1022.87 1022.81 1022.83 1022.76 1022.68 1022.55 1022.57
1019.60 1019.96 1020.34 1020.58 1020.77 1021.01 1021.19 1021.31 1021.38 1021.43 1021.49 1021.56 1021.65 1021.72 1021.82 1021.94 1022.05 1022.18 1022.34 1022.46 1022.58 1022.62 1022.76 1022.74 1022.86 1023.01 1023.05 1023.03 1023.02 1023.01 1022.87 1022.87 1022.82 1022.88 1023.08 1023.25 1023.19 1023.14 1023.14 1023.05 1023.11 1022.94 1022.92
1019.39 1019.89 1020.34 1020.68 1020.87 1021.08 1021.24 1021.34 1021.46 1021.52 1021.63 1021.73 1021.88 1021.97 1021.99 1022.03 1022.09 1022.29 1022.49 1022.58 1022.56 1022.57 1022.74 1022.71 1022.93 1023.06 1023.09 1023.08 1023.09 1023.07 1023.05 1023.02 1022.96 1023.03 1023.30 1023.47 1023.50 1023.45 1023.47 1023.46 1023.45 1023.30 1023.30
1019.36 1019.85 1020.39 1020.64 1020.91 1021.11 1021.30 1021.39 1021.47 1021.57 1021.68 1021.82 1021.91 1022.05 1022.22 1022.29 1022.35 1022.44 1022.61 1022.61 1022.64 1022.69 1022.68 1022.87 1022.98 1023.11 1023.16 1023.05 1022.91 1023.05 1023.07 1023.10 1023.08 1023.25 1023.26 1023.44 1023.51 1023.53 1023.62 1023.64 1023.58 1023.52 1023.41
1019.61 1019.97 1020.40 1020.63 1020.86 1021.08 1021.22 1021.33 1021.42 1021.58 1021.66 1021.74 1021.86 1022.00 1022.10 1022.32 1022.46 1022.57 1022.74 1022.85 1022.89 1022.95 1022.96 1023.03 1023.13 1023.24 1023.21 1023.14 1022.97 1023.10 1023.08 1023.10 1023.20 1023.17 1023.30 1023.40 1023.44 1023.44 1023.54 1023.59 1023.59 1023.59 1023.54
1019.51 1020.06 1020.41 1020.73 1020.94 1021.12 1021.28 1021.31 1021.42 1021.47 1021.60 1021.71 1021.82 1021.96 1022.06 1022.22 1022.32 1022.37 1022.47 1022.68 1022.88 1022.93 1023.01 1023.10 1023.30 1023.45 1023.42 1023.40 1023.41 1023.36 1023.24 1023.22 1023.18 1023.31 1023.39 1023.48 1023.43 1023.47 1023.58 1023.68 1023.69 1023.69 1023.68
1019.25 1019.89 1020.29 1020.59 1020.82 1020.97 1021.11 1021.23 1021.32 1021.43 1021.54 1021.69 1021.80 1021.90 1021.98 1022.08 1022.19 1022.37 1022.50 1022.56 1022.68 1022.81 1022.91 1023.06 1023.22 1023.35 1023.43 1023.41 1023.45 1023.45 1023.39 1023.35 1023.33 1023.39 1023.53 1023.41 1023.32 1023.38 1023.55 1023.71 1023.79 1023.82 1023.84
1019.28 1019.56 1020.04 1020.24 1020.46 1020.72 1020.83 1020.95 1021.14 1021.34 1021.53 1021.66 1021.75 1021.86 1021.95 1022.07 1022.18 1022.29 1022.40 1022.48 1022.51 1022.59 1022.72 1022.86 1023.03 1023.17 1023.27 1023.35 1023.39 1023.41 1023.37 1023.30 1023.22 1023.17 1023.32 1023.15 1023.01 1023.10 1023.25 1023.47 1023.59 1023.62 1023.64
1019.44 1019.62 1019.74 1019.97 1020.13 1020.31 1020.56 1020.81 1021.02 1021.18 1021.34 1021.49 1021.62 1021.77 1021.90 1022.00 1022.09 1022.19 1022.22 1022.29 1022.36 1022.42 1022.51 1022.61 1022.74 1022.88 1022.98 1023.07 1023.13 1023.15 1023.16 1023.16 1023.09 1022.98 1023.01 1022.98 1022.76 1022.79 1022.92 1023.13 1023.33 1023.40 1023.46
1019.39 1019.40 1019.51 1019.71 1019.83 1020.03 1020.07 1020.30 1020.69 1020.94 1021.16 1021.32 1021.43 1021.55 1021.71 1021.74 1021.76 1021.82 1021.95 1022.01 1022.10 1022.21 1022.31 1022.40 1022.53 1022.70 1022.87 1023.01 1022.99 1022.90 1023.00 1022.95 1022.89 1022.78 1022.80 1022.70 1022.58 1022.52 1022.55 1022.69 1022.97 1023.12 1023.20
1019.05 1019.15 1019.14 1019.28 1019.52 1019.72 1019.86 1020.12 1020.39 1020.63 1020.85 1020.99 1021.09 1021.23 1021.31 1021.40 1021.48 1021.59 1021.62 1021.77 1021.95 1022.03 1022.21 1022.30 1022.43 1022.58 1022.74 1022.80 1022.78 1022.75 1022.73 1022.77 1022.73 1022.59 1022.53 1022.51 1022.36 1022.30 1022.29 1022.34 1022.58 1022.81 1022.94
1018.85 1018.75 1018.86 1018.81 1018.99 1019.32 1019.56 1019.66 1019.75 1020.05 1020.39 1020.62 1020.66 1020.72 1020.98 1021.28 1021.33 1021.35 1021.52 1021.49 1021.71 1021.78 1021.98 1022.09 1022.26 1022.30 1022.43 1022.34 1022.35 1022.44 1022.51 1022.54 1022.51 1022.41 1022.37 1022.25 1022.25 1022.20 1022.08 1022.03 1022.01 1022.08 1022.28
1018.48 1018.46 1018.66 1018.69 1018.74 1018.72 1019.07 1019.24 1019.43 1019.61 1019.67 1019.90 1020.14 1020.20 1020.44 1020.67 1021.00 1021.07 1021.19 1021.32 1021.44 1021.56 1021.73 1021.84 1021.95 1021.99 1022.09 1022.10 1022.06 1022.17 1022.10 1022.04 1022.07 1022.04 1022.01 1022.00 1022.01 1021.88 1021.76 1021.72 1021.70 1021.62 1021.83
1018.45 1018.43 1018.50 1018.64 1018.63 1018.70 1018.75 1018.80 1018.99 1019.20 1019.37 1019.52 1019.47 1019.56 1019.82 1020.06 1020.35 1020.71 1020.91 1021.01 1021.10 1021.22 1021.30 1021.43 1021.46 1021.58 1021.69 1021.72 1021.76 1021.82 1021.83 1021.78 1021.72 1021.68 1021.71 1021.72 1021.69 1021.56 1021.41 1021.33 1021.34 1021.33 1021.19
1018.49 1018.42 1018.45 1018.49 1018.33 1018.42 1018.52 1018.66 1018.66 1018.73 1018.87 1019.13 1019.24 1019.26 1019.19 1019.47 1019.75 1020.03 1020.44 1020.69 1020.73 1020.82 1020.93 1021.12 1021.20 1021.26 1021.41 1021.43 1021.58 1021.54 1021.53 1021.53 1021.48 1021.39 1021.38 1021.32 1021.24 1021.18 1021.07 1020.89 1020.79 1020.82 1020.83
1018.62 1018.69 1018.61 1018.71 1018.76 1018.59 1018.44 1018.48 1018.43 1018.45 1018.46 1018.52 1018.70 1018.92 1018.97 1019.08 1019.22 1019.60 1019.90 1020.10 1020.21 1020.41 1020.60 1020.76 1020.92 1021.10 1021.22 1021.33 1021.32 1021.33 1021.18 1021.11 1020.97 1020.88 1020.91 1020.93 1020.85 1020.75 1020.66 1020.56 1020.55 1020.54 1020.48
1018.81 1018.90 1018.88 1019.01 1019.03 1018.83 1018.42 1018.24 1018.14 1018.15 1018.25 1018.19 1018.33 1018.51 1018.58 1018.85 1019.05 1019.25 1019.49 1019.60 1019.78 1020.04 1020.20 1020.29 1020.54 1020.77 1020.91 1020.97 1020.99 1020.91 1020.75 1020.63 1020.37 1020.16 1020.27 1020.24 1020.06 1020.03 1020.03 1019.93 1020.06 1020.06 1020.12
1018.96 1019.02 1019.09 1019.32 1019.33 1019.02 1018.57 1018.28 1018.01 1017.92 1017.83 1017.85 1017.97 1018.17 1018.31 1018.46 1018.60 1018.91 1019.26 1019.42 1019.58 1019.68 1019.91 1020.02 1020.18 1020.28 1020.38 1020.32 1020.42 1020.31 1020.11 1019.83 1019.49 1019.41 1019.33 1019.11 1018.94 1018.98 1018.95 1018.95 1019.22 1019.32 1019.37
1019.34 1019.41 1019.56 1019.74 1019.75 1019.45 1019.10 1018.79 1018.49 1018.41 1017.98 1017.83 1017.61 1017.64 1017.87 1018.22 1018.44 1018.81 1018.90 1019.14 1019.34 1019.57 1019.68 1019.81 1019.95 1019.99 1019.96 1019.98 1020.20 1019.93 1019.60 1019.29 1019.09 1018.75 1018.34 1018.22 1018.23 1018.07 1018.27 1018.20 1018.33 1018.38 1018.46
1019.77 1019.81 1020.04 1020.30 1020.21 1019.81 1019.37 1018.94 1018.59 1018.37 1018.22 1018.08 1017.91 1017.89 1018.07 1018.20 1018.33 1018.66 1018.77 1018.95 1019.01 1019.32 1019.45 1019.51 1019.59 1019.72 1019.63 1019.58 1019.85 1019.81 1019.42 1019.00 1018.49 1018.05 1017.83 1017.79 1017.60 1017.45 1017.56 1017.52 1017.63 1017.44 1017.61
1020.03 1020.13 1020.50 1020.68 1020.54 1020.16 1019.57 1018.86 1018.39 1018.33 1018.44 1018.78 1019.03 1018.93 1018.94 1018.86 1019.13 1019.30 1019.18 1019.08 1018.94 1019.01 1019.20 1019.24 1019.27 1019.34 1019.36 1019.33 1019.29 1019.52 1019.18 1018.89 1018.50 1017.69 1017.42 1017.34 1017.22 1017.10 1016.87 1016.70 1016.62 1016.80 1016.57
1020.42 1020.42 1020.88 1021.02 1020.84 1020.49 1020.05 1019.70 1019.51 1019.66 1019.79 1020.10 1020.04 1019.85 1019.58 1019.72 1019.98 1020.05 1019.99 1019.90 1019.70 1019.31 1019.37 1019.34 1019.22 1019.12 1019.05 1018.98 1019.00 1018.85 1018.71 1018.60 1018.46 1017.78 1017.53 1017.19 1016.93 1016.77 1016.42 1016.34 1016.14 1016.21 1016.10
1020.37 1020.94 1021.26 1021.31 1021.14 1020.90 1020.61 1020.44 1020.38 1020.56 1020.81 1020.89 1020.80 1020.55 1020.53 1020.44 1020.75 1020.79 1020.68 1020.56 1020.39 1020.27 1020.19 1019.95 1019.60 1019.18 1018.98 1018.88 1018.79 1018.66 1018.52 1018.35 1018.45 1018.17 1017.37 1017.17 1016.78 1016.51 1016.30 1016.03 1015.97 1015.71 1015.47
1020.66 1021.22 1021.50 1021.61 1021.60 1021.43 1021.22 1021.08 1021.12 1021.30 1021.34 1021.23 1021.22 1021.13 1021.23 1021.35 1021.56 1021.62 1021.50 1021.39 1021.20 1020.96 1020.78 1020.42 1020.09 1019.87 1019.54 1018.99 1018.66 1018.43 1018.45 1018.54 1018.32 1018.11 1017.57 1017.20 1016.74 1016.43 1015.97 1015.71 1015.43 1015.24 1015.15
Wind_Speed
3 8 12 14 14 12 11 11 12 11 11 14 14 14 14 14 14 12 9 11 12 14 15 13 15 15 14 15 15 15 16 16 16 16 16 15 15 14 14 14 11 7 13
10 8 10 12 13 13 11 10 11 11 10 11 15 13 12 13 12 13 13 13 11 10 12 14 14 13 13 14 13 12 12 12 13 13 14 15 14 13 13 12 9 11 13
11 8 8 10 11 11 10 8 8 8 9 8 13 15 11 12 12 12 11 10 9 11 10 11 13 12 10 11 10 9 9 8 7 7 11 6 6 11 11 11 9 11 10
12 9 7 10 11 10 9 7 6 7 8 9 11 12 11 10 12 11 10 8 8 9 9 9 13 12 10 6 7 7 7 10 11 9 5 6 7 10 9 8 9 9 10
11 10 9 11 10 10 9 7 7 6 7 8 8 8 10 8 11 10 8 7 6 7 7 8 10 11 10 8 3 4 5 8 10 6 7 6 5 7 8 8 7 9 9
11 11 10 12 11 10 8 7 7 5 5 5 6 7 7 8 8 10 6 5 4 8 8 9 10 9 8 8 4 4 4 7 8 5 7 8 6 7 7 6 6 7 3
9 9 8 11 10 9 8 7 7 6 5 5 5 6 8 8 8 9 6 5 3 3 2 5 8 7 6 10 8 5 4 5 4 3 6 6 5 7 6 5 4 4 4
11 9 8 8 8 8 7 6 6 6 6 5 5 7 8 8 7 10 10 8 4 2 1 3 7 5 5 6 7 6 5 6 5 4 5 5 7 7 5 4 3 3 3
11 9 8 8 7 8 7 6 7 6 5 5 5 4 9 9 8 8 9 9 9 6 4 3 2 2 1 2 3 3 4 5 5 3 5 4 9 7 5 4 3 3 3
7 8 7 8 8 7 6 10 9 7 6 5 5 4 7 7 7 7 7 8 9 10 8 7 6 4 3 2 2 3 4 6 5 4 2 4 10 8 7 6 6 6 6
4 6 7 7 8 8 7 6 7 7 7 7 6 6 6 4 5 7 7 9 9 10 9 9 9 8 6 6 6 8 7 3 5 4 1 10 11 9 8 8 8 8 8
6 6 7 6 7 6 5 6 7 6 5 5 5 6 4 5 5 6 8 11 11 10 10 10 10 9 7 4 3 6 3 5 4 4 3 12 12 10 9 10 10 10 10
7 5 7 7 7 6 5 4 3 3 3 4 6 6 6 5 4 4 3 4 4 7 4 5 5 4 5 4 4 4 5 5 4 3 4 11 13 12 10 11 13 12 12
6 8 8 8 7 7 4 4 5 4 4 4 5 8 5 3 4 4 3 4 4 3 5 5 3 5 6 7 6 6 6 4 3 3 4 11 12 14 12 13 15 17 16
4 3 5 6 6 7 7 5 3 3 4 5 4 5 4 5 5 4 4 4 4 4 4 5 5 5 5 6 6 6 6 6 6 3 3 10 12 15 15 15 17 17 19
5 4 3 2 5 6 6 7 5 4 5 4 6 7 6 5 5 4 4 4 4 4 4 5 6 5 6 5 6 6 7 6 6 6 4 5 13 15 17 18 19 20 20
3 4 4 4 5 3 5 6 4 5 5 4 5 6 7 6 6 6 5 4 4 4 6 4 5 4 4 4 6 5 5 6 6 7 6 5 5 14 16 20 21 21 22
5 6 6 5 6 6 5 4 4 5 5 5 5 5 6 6 7 5 4 4 4 4 4 4 4 4 4 4 4 4 5 5 7 8 6 6 7 7 10 19 20 21 22
6 6 7 7 6 7 6 4 4 5 4 5 4 4 6 5 4 4 4 4 4 3 4 5 5 5 4 4 5 5 6 6 8 7 8 8 10 10 7 12 17 20 21
7 7 7 6 7 7 4 4 3 2 2 3 4 4 6 4 5 4 3 3 3 3 3 3 6 4 5 5 5 7 6 7 8 8 9 9 11 11 11 11 6 9 19
7 8 8 7 7 5 3 3 2 2 3 2 3 6 7 6 4 4 3 3 3 3 3 4 3 6 4 3 2 6 8 8 8 9 8 9 10 11 9 10 7 6 7
6 7 7 6 6 4 3 3 2 2 1 2 4 3 3 4 4 1 4 4 4 3 4 4 4 3 3 4 3 2 2 3 6 9 8 8 12 7 7 9 10 10 9
7 8 7 6 6 5 7 4 2 1 4 4 6 5 10 10 10 8 6 4 4 3 4 4 4 5 5 3 6 4 2 4 2 4 6 7 7 5 7 9 9 11 11
5 8 7 6 6 7 9 7 7 5 4 3 3 3 8 10 11 10 9 9 9 6 4 5 3 5 4 5 2 5 8 6 5 5 2 3 4 6 7 6 8 8 11
7 7 6 6 6 7 8 8 6 7 4 4 4 7 8 10 11 11 10 10 10 7 7 7 10 6 4 4 4 3 4 4 6 6 8 5 4 5 5 6 5 7 8
7 6 6 6 6 6 7 8 8 8 6 5 7 6 5 5 6 10 9 8 7 6 7 6 7 7 9 6 5 4 4 4 3 4 4 7 7 5 4 6 7 7 6
Wind_Direction
137 132 132 127 124 117 109 106 100 112 115 106 96 86 83 81 75 67 72 69 60 59 60 64 63 61 69 69 76 76 77 80 84 84 79 67 64 66 70 74 63 67 74
135 137 137 132 130 124 119 114 110 107 113 117 107 99 97 92 83 69 69 69 71 65 66 59 66 63 69 72 72 71 74 83 93 78 80 75 66 66 69 79 79 83 78
125 128 133 133 127 122 121 117 109 106 110 110 114 110 111 106 94 86 84 82 78 87 65 51 77 63 57 68 69 55 37 43 60 66 85 72 66 70 73 82 71 81 87
135 141 138 139 131 130 127 122 110 95 99 114 117 116 122 120 108 104 103 94 90 82 82 68 69 70 57 52 66 47 18 16 17 48 84 68 63 66 65 78 71 80 82
143 141 139 142 138 138 139 137 128 112 100 116 120 117 127 114 123 113 111 106 105 118 114 82 80 64 52 40 103 82 20 4 2 71 88 88 74 59 57 74 59 80 85
124 127 141 142 143 144 145 142 135 133 128 126 135 125 125 125 119 112 112 111 110 107 113 87 74 58 45 31 141 129 51 12 10 75 103 103 96 81 75 85 85 78 61
118 131 137 143 147 151 158 159 158 156 149 152 161 156 145 148 141 131 127 112 65 79 64 99 79 58 35 41 66 80 67 16 10 40 127 121 119 105 102 107 114 108 96
133 133 137 145 152 159 166 168 176 179 182 168 162 174 168 163 163 157 156 155 149 171 198 49 77 57 28 32 32 28 21 1 344 358 140 129 134 123 127 139 154 142 147
134 138 146 157 165 172 182 189 185 186 190 199 197 204 187 178 178 183 177 180 174 190 210 160 141 136 112 4 24 15 337 326 323 307 167 155 154 145 149 168 188 187 209
139 150 165 168 170 178 185 196 195 193 202 215 211 201 185 190 193 199 207 209 194 195 205 185 191 202 212 243 282 294 298 295 288 288 152 191 169 168 169 182 202 208 211
147 164 167 168 180 186 188 197 198 198 205 209 216 215 200 200 211 214 210 208 215 207 208 198 196 209 215 225 242 245 241 242 263 271 220 197 180 185 186 192 209 216 218
181 179 176 182 183 186 193 181 192 196 199 201 205 206 204 208 215 216 212 212 210 214 216 211 205 210 214 223 247 247 228 241 248 253 212 198 194 200 203 207 214 220 223
194 191 187 177 194 193 202 169 174 186 194 205 208 204 206 214 230 218 209 213 208 217 220 223 224 210 214 220 239 233 229 239 251 251 222 206 204 213 219 224 220 225 228
179 191 195 195 187 187 191 195 191 192 189 200 208 206 197 210 229 232 207 198 199 206 212 216 214 219 224 224 225 231 220 223 239 252 245 207 213 224 234 235 232 223 218
189 191 193 205 204 198 192 201 205 218 196 198 213 219 191 201 210 220 226 210 208 205 208 218 219 223 222 231 230 229 236 240 245 245 243 222 227 227 240 246 243 244 227
150 113 68 78 217 216 206 198 207 203 215 223 206 204 208 199 204 206 223 223 223 205 210 215 218 214 228 224 233 225 232 235 241 243 243 240 227 231 235 244 249 247 253
132 98 42 343 326 234 206 219 214 212 207 209 217 224 205 192 204 203 207 227 227 224 224 224 235 234 235 235 241 238 236 239 241 241 234 237 236 236 237 240 246 248 249
97 66 45 16 355 338 302 227 214 227 221 217 198 205 209 222 193 205 209 218 221 222 220 224 228 242 240 235 246 242 242 240 243 241 235 238 244 244 238 240 242 246 249
81 63 43 20 357 340 325 294 251 233 220 217 215 211 220 223 241 197 215 220 213 221 218 229 230 225 238 245 246 249 241 243 245 247 235 233 238 240 239 238 235 240 245
72 59 47 26 5 342 325 325 305 277 258 221 209 203 203 218 222 218 229 229 233 239 244 228 234 209 232 233 237 253 246 242 247 247 242 236 238 235 236 238 222 235 237
61 59 46 29 355 6 347 344 348 299 292 301 260 198 185 194 192 205 218 231 238 247 251 244 244 243 246 228 239 252 253 243 244 245 240 243 246 239 232 234 229 229 232
87 69 48 27 1 348 341 280 235 234 246 48 4 48 277 205 223 202 242 236 220 232 256 255 224 246 239 204 240 257 264 268 248 252 253 249 252 251 235 232 231 227 234
78 70 63 32 8 3 349 329 357 24 44 29 28 40 38 51 37 14 351 312 261 222 249 246 228 218 256 238 211 227 277 227 286 241 239 248 253 249 243 242 224 229 228
97 76 69 44 21 20 13 25 42 53 72 36 26 34 51 51 43 33 24 23 19 354 308 286 264 246 218 246 241 228 243 254 285 289 267 260 264 259 246 246 247 240 239
95 85 82 60 40 31 37 41 54 67 55 41 36 51 45 45 43 32 27 19 20 10 3 5 6 304 256 249 240 251 245 261 259 268 280 268 260 272 265 264 252 252 245
98 93 96 76 48 37 43 43 54 59 59 54 36 42 36 40 38 28 21 17 13 15 11 3 1 360 16 326 288 271 264 271 266 262 283 289 289 276 264 267 258 260 266